This is the latest recevied weather packets stored in our database for station/object CA3VLN-10. If no packets are shown the sender has not sent any weather packets the latest 10 day(s).
| Time | Temp. | Humidity | Pressure | Rain* | Wind** | Luminosity | Snow |
|---|---|---|---|---|---|---|---|
| 1777242708 | 18.89° C | 37% | 1007 hPa | - | - | - | - |
| 1777241808 | 19.44° C | 36% | 1006.9 hPa | - | - | - | - |
| 1777240908 | 20° C | 34% | 1006.9 hPa | - | - | - | - |
| 1777240008 | 20.56° C | 33% | 1006.7 hPa | - | - | - | - |
| 1777239107 | 21.11° C | 32% | 1006.8 hPa | - | - | - | - |
| 1777238207 | 21.11° C | 32% | 1006.6 hPa | - | - | - | - |
| 1777237448 | 21.67° C | 32% | - | - | - | - | - |
| 1777237307 | 21.67° C | 32% | 1006.6 hPa | - | - | - | - |
| 1777236407 | 22.22° C | 30% | 1006.6 hPa | - | - | - | - |
| 1777235507 | 22.22° C | 30% | 1006.5 hPa | - | - | - | - |
| 1777234607 | 22.78° C | 30% | 1006.6 hPa | - | - | - | - |
| 1777233707 | 22.78° C | 30% | 1006.7 hPa | - | - | - | - |
| 1777232807 | 23.33° C | 29% | 1006.7 hPa | - | - | - | - |
| 1777231907 | 23.33° C | 29% | 1006.7 hPa | - | - | - | - |
| 1777231006 | 23.33° C | 29% | 1006.8 hPa | - | - | - | - |
| 1777230106 | 23.33° C | 30% | 1006.8 hPa | - | - | - | - |
| 1777229206 | 23.33° C | 29% | 1006.8 hPa | - | - | - | - |
| 1777228306 | 23.33° C | 30% | 1006.8 hPa | - | - | - | - |
| 1777227406 | 23.33° C | 29% | 1007 hPa | - | - | - | - |
| 1777226506 | 23.33° C | 29% | 1007.2 hPa | - | - | - | - |
| 1777225606 | 22.78° C | 30% | 1007.3 hPa | - | - | - | - |
| 1777224706 | 22.78° C | 31% | 1007.5 hPa | - | - | - | - |
| 1777223806 | 22.78° C | 32% | 1007.7 hPa | - | - | - | - |
| 1777222905 | 22.22° C | 32% | 1007.7 hPa | - | - | - | - |
| 1777222005 | 22.22° C | 32% | 1007.8 hPa | - | - | - | - |
* Rain since midnight (hover to see other rain measurements)
** Current wind speed in m/s (hover to see current wind gust speed)